{"data":{"norad_id":58948,"epoch":"2026-09-20T21:33:34.928352Z","epoch_age_seconds":121275,"freshness":"FRESH","line1":"1 58948U 24027T   26263.89832093  .00000816  00000+0  35285-4 0  9991","line2":"2 58948  53.1605 119.4966 0001427  82.4646 277.6518 15.34396906147268","mean_motion":15.34396906,"eccentricity":0.0001427,"inclination_deg":53.1605,"raan_deg":119.4966,"arg_perigee_deg":82.4646,"mean_anomaly_deg":277.6518,"bstar":3.5285e-5,"rev_number":14726,"period_min":93.847947318528,"perigee_km":461.73624702804,"apogee_km":463.68862545714,"semimajor_km":6840.8494362426,"source":"CELESTRAK","updated_at":"2026-09-21T09:00:33.999530Z"}}